Gaylord, MI

2:24 PM EST on February 23, 2017 (GMT -0500)
Otsego County

Weather History for KGLR - February, 2013

Change the Weather History Date:

Tuesday, February 12, 2013

  Actual Average Record
Temperature  
Mean Temperature 22 °F -  
Max Temperature 24 °F 26 °F 48 °F (1984)
Min Temperature 21 °F 5 °F -21 °F (1958)
Degree Days  
Heating Degree Days 42    
Moisture  
Dew Point 18 °F    
Average Humidity 84    
Maximum Humidity 93    
Minimum Humidity 75    
Precipitation  
Precipitation 0.01 in - - ()
Sea Level Pressure  
Sea Level Pressure 29.87 in    
Wind  
Wind Speed 9 mph (West)    
Max Wind Speed 15 mph    
Max Gust Speed 21 mph    
Visibility 6 miles    
Events Snow    
Averages and records for this station are not official NWS values.
T = Trace of Precipitation, MM = Missing Value Source: NWS Daily Summary

Daily Weather History Graph

Daily Weather History Graph

Search for Another Location

Airport or City:

Trip Planner

Search our weather history database for the weather conditions in past years. The results will help you decide how hot, cold, wet, or windy it might be!

Date:

Astronomy

Feb. 12, 2013 Rise Set
Actual Time 7:43 AM EST 6:02 PM EST
Civil Twilight 7:13 AM EST 6:33 PM EST
Nautical Twilight 6:38 AM EST 7:07 PM EST
Astronomical Twilight 6:04 AM EST 7:41 PM EST
Moon 8:31 AM EST (2/12) 9:13 PM EST (2/12)
Length of Visible Light 11h 19m
Length of Day
10h 19m
Waxing Crescent, 7% of the Moon is Illuminated
Feb 12
Waxing Crescent
Feb 17
First Quarter
Feb 25
Full
Mar 4
Last Quarter
Mar 11
New

Hourly Weather History & Observations

Time (EST) Temp. Windchill Dew Point Humidity Pressure Visibility Wind Dir Wind Speed Gust Speed Precip Events Conditions
12:53 AM 24.1 °F 12.5 °F 18.0 °F 77% 29.78 in 10.0 mi WNW 12.7 mph 19.6 mph N/A   Overcast
1:53 AM 23.0 °F 13.9 °F 18.0 °F 81% 29.80 in 5.0 mi WNW 8.1 mph 20.7 mph 0.00 in Snow Light Snow
2:53 AM 21.9 °F 14.5 °F 17.1 °F 82% 29.83 in 5.0 mi WNW 5.8 mph - 0.00 in Snow Light Snow
3:01 AM 21.2 °F 13.6 °F 17.6 °F 86% 29.78 in 6.0 mi Variable 5.8 mph - 0.00 in Snow Light Snow
3:50 AM 21.2 °F 10.9 °F 15.8 °F 80% 29.79 in 6.0 mi WNW 9.2 mph 18.4 mph 0.00 in Snow Light Snow
3:53 AM 21.9 °F 13.4 °F 15.1 °F 75% 29.84 in 5.0 mi WNW 6.9 mph 18.4 mph 0.00 in Snow Light Snow
4:32 AM 21.2 °F 11.7 °F 17.6 °F 86% 29.79 in 2.5 mi West 8.1 mph - 0.00 in Snow Light Snow
4:46 AM 21.2 °F 10.9 °F 17.6 °F 86% 29.80 in 2.5 mi West 9.2 mph - 0.00 in Snow Light Snow
4:51 AM 21.2 °F 11.7 °F 17.6 °F 86% 29.80 in 3.0 mi West 8.1 mph - 0.00 in Snow Light Snow
4:53 AM 21.9 °F 12.5 °F 18.0 °F 85% 29.86 in 3.0 mi West 8.1 mph - 0.00 in Snow Light Snow
5:10 AM 21.2 °F 12.6 °F 17.6 °F 86% 29.80 in 4.0 mi WNW 6.9 mph - 0.00 in Snow Light Snow
5:50 AM 21.2 °F 11.7 °F 17.6 °F 86% 29.82 in 8.0 mi West 8.1 mph - 0.00 in   Overcast
5:53 AM 21.9 °F 14.5 °F 18.0 °F 85% 29.88 in 7.0 mi West 5.8 mph - 0.00 in   Overcast
6:53 AM 21.9 °F 11.7 °F 18.0 °F 85% 29.90 in 4.0 mi West 9.2 mph 17.3 mph 0.00 in Snow Light Snow
7:20 AM 21.2 °F 10.9 °F 17.6 °F 86% 29.85 in 3.0 mi West 9.2 mph - 0.00 in Snow Light Snow
7:51 AM 21.2 °F 10.9 °F 19.4 °F 93% 29.86 in 2.5 mi West 9.2 mph 17.3 mph 0.00 in Snow Light Snow
7:53 AM 21.9 °F 11.0 °F 19.0 °F 89% 29.92 in 2.5 mi West 10.4 mph 17.3 mph 0.00 in Snow Light Snow
8:21 AM 23.0 °F 11.7 °F 19.4 °F 86% 29.87 in 4.0 mi West 11.5 mph - 0.00 in Snow Light Snow
8:41 AM 23.0 °F 13.1 °F 19.4 °F 86% 29.87 in 2.5 mi West 9.2 mph 19.6 mph 0.00 in Snow Light Snow
8:53 AM 23.0 °F 11.7 °F 19.0 °F 85% 29.94 in 2.0 mi West 11.5 mph 18.4 mph 0.00 in Snow Light Snow
9:07 AM 23.0 °F 12.4 °F 19.4 °F 86% 29.88 in 2.0 mi West 10.4 mph - 0.00 in Snow Light Snow
9:49 AM 23.0 °F 13.1 °F 19.4 °F 86% 29.89 in 4.0 mi West 9.2 mph - 0.00 in Snow Light Snow
9:53 AM 23.0 °F 11.1 °F 19.0 °F 85% 29.95 in 4.0 mi West 12.7 mph 17.3 mph 0.00 in Snow Light Snow
10:53 AM 23.0 °F 13.1 °F 18.0 °F 81% 29.96 in 7.0 mi West 9.2 mph - 0.00 in   Overcast
11:23 AM 23.0 °F 14.7 °F 19.4 °F 86% 29.89 in 2.5 mi West 6.9 mph - 0.00 in Snow Light Snow
11:40 AM 24.8 °F 17.9 °F 19.4 °F 80% 29.89 in 3.0 mi West 5.8 mph - 0.00 in Snow Light Snow
11:53 AM 24.1 °F 14.4 °F 19.9 °F 84% 29.95 in 5.0 mi West 9.2 mph - 0.00 in Snow Light Snow
12:53 PM 24.1 °F 15.2 °F 19.0 °F 81% 29.94 in 7.0 mi West 8.1 mph - 0.00 in   Overcast
1:13 PM 24.8 °F 16.1 °F 19.4 °F 80% 29.87 in 9.0 mi West 8.1 mph - 0.00 in   Overcast
1:53 PM 24.1 °F 15.2 °F 18.0 °F 77% 29.92 in 4.0 mi West 8.1 mph - 0.00 in Snow Light Snow
2:53 PM 24.1 °F 17.0 °F 19.0 °F 81% 29.90 in 6.0 mi WSW 5.8 mph - 0.00 in Snow Light Snow
3:53 PM 24.1 °F 16.0 °F 19.9 °F 84% 29.88 in 10.0 mi West 6.9 mph - 0.00 in   Overcast
4:44 PM 24.8 °F 12.9 °F 19.4 °F 80% 29.82 in 6.0 mi WSW 13.8 mph - 0.00 in Snow Light Snow
4:51 PM 24.8 °F 12.9 °F 19.4 °F 80% 29.82 in 5.0 mi WSW 13.8 mph - 0.01 in Snow Light Snow
4:53 PM 24.1 °F 11.5 °F 19.9 °F 84% 29.88 in 5.0 mi WSW 15.0 mph - 0.01 in Snow Light Snow
5:53 PM 23.0 °F 11.1 °F 18.0 °F 81% 29.89 in 8.0 mi WSW 12.7 mph - 0.00 in   Overcast
6:53 PM 21.9 °F 10.4 °F 18.0 °F 85% 29.91 in 6.0 mi West 11.5 mph - 0.00 in Snow Light Snow
7:05 PM 21.2 °F 10.1 °F 17.6 °F 86% 29.84 in 6.0 mi WSW 10.4 mph - 0.00 in Snow Light Snow
7:53 PM 21.9 °F 9.2 °F 18.0 °F 85% 29.90 in 10.0 mi WSW 13.8 mph - 0.00 in   Overcast
8:16 PM 21.2 °F 8.9 °F 17.6 °F 86% 29.83 in 10.0 mi SW 12.7 mph - N/A   Overcast
8:53 PM 21.0 °F 9.9 °F 16.0 °F 81% 29.90 in 10.0 mi WSW 10.4 mph - N/A   Overcast
9:53 PM 21.0 °F 11.4 °F 16.0 °F 81% 29.88 in 10.0 mi SW 8.1 mph - N/A   Overcast
10:53 PM 21.0 °F 10.6 °F 17.1 °F 85% 29.87 in 10.0 mi SW 9.2 mph - N/A   Overcast
11:53 PM 21.0 °F 9.3 °F 17.1 °F 85% 29.85 in 10.0 mi SW 11.5 mph - N/A   Overcast